Terminal Aerodrome Forecast
Issued by NWS

Home | Current Version | Previous Version | Text Only | Print | Product List | Glossary On
Versions: 1 2 3 4 5 6 7 8 9 10 11 12 13 14 15 16
000
FTUS43 KFGF 020500
TAFTVF
TAF
KTVF 020534Z 0206/0306 25005KT P6SM SCT040
     FM021200 19005KT P6SM SKC
     FM021700 18015G23KT P6SM SCT250
     FM022000 18018G25KT P6SM BKN250
     FM022300 18018G25KT P6SM BKN080
      AMD LTD TO CLD VIS AND WIND=

USA.gov is the U.S. government's official web portal to all federal, state and local government web resources and services.